TimeEST,TemperatureF,Dew PointF,Humidity,Sea Level PressureIn,VisibilityMPH,Wind Direction,Wind SpeedMPH,Gust SpeedMPH,PrecipitationIn,Events,Conditions,WindDirDegrees,DateUTC
12:00 AM,30.0,28.9,96,29.93,-9999.0,Calm,Calm,-,N/A,,Overcast,0,2014-02-22 05:00:00
12:21 AM,30.2,28.4,93,29.94,-9999.0,Calm,Calm,-,N/A,,Scattered Clouds,0,2014-02-22 05:21:00
1:00 AM,30.0,28.9,96,29.95,-9999.0,WNW,3.5,-,N/A,,Clear,300,2014-02-22 06:00:00
2:00 AM,28.9,28.0,96,29.97,-9999.0,Calm,Calm,-,N/A,,Clear,0,2014-02-22 07:00:00
4:00 AM,32.0,30.9,96,30.00,-9999.0,Calm,Calm,-,N/A,,Clear,0,2014-02-22 09:00:00
5:00 AM,30.9,30.0,96,30.03,-9999.0,Calm,Calm,-,N/A,,Clear,0,2014-02-22 10:00:00
6:00 AM,30.9,28.9,92,30.05,-9999.0,West,4.6,-,N/A,,Clear,270,2014-02-22 11:00:00
7:00 AM,28.0,26.1,92,30.06,-9999.0,Calm,Calm,-,N/A,,Clear,0,2014-02-22 12:00:00
8:00 AM,35.1,33.1,92,30.08,-9999.0,Calm,Calm,-,N/A,,Clear,0,2014-02-22 13:00:00
9:00 AM,42.1,37.9,85,30.08,-9999.0,WSW,3.5,-,N/A,,Clear,240,2014-02-22 14:00:00
10:00 AM,46.0,28.9,51,30.09,-9999.0,SW,8.1,-,N/A,,Clear,230,2014-02-22 15:00:00
11:00 AM,51.1,24.1,35,30.07,-9999.0,SW,13.8,-,N/A,,Clear,230,2014-02-22 16:00:00
12:00 PM,54.0,24.1,31,30.06,-9999.0,SW,17.3,21.9,N/A,,Clear,230,2014-02-22 17:00:00
1:00 PM,57.0,19.9,24,30.02,-9999.0,WSW,17.3,24.2,N/A,,Clear,240,2014-02-22 18:00:00
2:00 PM,59.0,18.0,20,30.00,-9999.0,WSW,20.7,28.8,N/A,,Clear,240,2014-02-22 19:00:00
3:00 PM,59.0,15.1,18,29.99,-9999.0,West,23.0,29.9,N/A,,Clear,260,2014-02-22 20:00:00
4:00 PM,57.9,16.0,19,29.99,-9999.0,West,11.5,28.8,N/A,,Clear,270,2014-02-22 21:00:00
5:00 PM,55.9,18.0,23,30.01,-9999.0,WSW,11.5,20.7,N/A,,Clear,250,2014-02-22 22:00:00
6:00 PM,50.0,19.0,29,30.01,-9999.0,WSW,6.9,-,N/A,,Clear,240,2014-02-22 23:00:00
8:00 PM,43.0,27.0,53,30.04,-9999.0,SW,4.6,-,N/A,,Clear,220,2014-02-23 01:00:00
9:00 PM,44.1,28.0,53,30.04,-9999.0,SW,6.9,-,N/A,,Clear,220,2014-02-23 02:00:00
10:00 PM,44.1,27.0,51,30.04,-9999.0,SW,8.1,-,N/A,,Clear,220,2014-02-23 03:00:00
11:00 PM,44.1,28.9,55,30.03,-9999.0,SW,8.1,-,N/A,,Clear,230,2014-02-23 04:00:00